| time (UTC) | temp F | wind direction | speed MPH | gust MPH | rain 1hr in | rain 24hr in | rain mn in | humidity % | barometer mb |
| 20260505003015 | 66 | 142 | 0.0 | 4.0 | 0.00 | 0.00 | 0.00 | 50 | 1009.5 |
| 20260505001515 | 66 | 148 | 0.0 | 0.0 | 0.00 | 0.00 | 0.00 | 49 | 1009.5 |
| 20260505000026 | 67 | 205 | 0.0 | 1.0 | 0.00 | 0.00 | 0.00 | 48 | 1009.5 |
| 20260504234514 | 68 | 202 | 0.0 | 3.0 | 0.00 | 0.00 | 0.00 | 47 | 1009.3 |
| 20260504233013 | 69 | 182 | 0.0 | 8.0 | 0.00 | 0.00 | 0.00 | 46 | 1009.4 |
| 20260504231513 | 69 | 184 | 2.0 | 9.0 | 0.00 | 0.00 | 0.00 | 45 | 1009.4 |
| 20260504230017 | 70 | 185 | 0.0 | 6.0 | 0.00 | 0.00 | 0.00 | 45 | 1009.3 |
| 20260504224510 | 71 | 185 | 0.0 | 5.0 | 0.00 | 0.00 | 0.00 | 43 | 1009.2 |
| 20260504223010 | 71 | 210 | 0.0 | 12.0 | 0.00 | 0.00 | 0.00 | 45 | 1009.3 |
| 20260504221515 | 71 | 281 | 0.0 | 10.0 | 0.00 | 0.00 | 0.00 | 43 | 1009.4 |
| 20260504220007 | 71 | 101 | 0.0 | 10.0 | 0.00 | 0.00 | 0.00 | 44 | 1009.4 |
| 20260504214511 | 72 | 157 | 0.0 | 9.0 | 0.00 | 0.00 | 0.00 | 42 | 1009.7 |
| 20260504213016 | 72 | 215 | 1.0 | 10.0 | 0.00 | 0.00 | 0.00 | 40 | 1009.6 |
| 20260504211511 | 72 | 197 | 1.0 | 11.0 | 0.00 | 0.00 | 0.00 | 40 | 1009.6 |
| 20260504210005 | 72 | 312 | 2.0 | 11.0 | 0.00 | 0.00 | 0.00 | 42 | 1009.6 |
| 20260504204502 | 72 | 199 | 3.0 | 12.0 | 0.00 | 0.00 | 0.00 | 43 | 1009.5 |
| 20260504203003 | 72 | 142 | 2.0 | 12.0 | 0.00 | 0.00 | 0.00 | 40 | 1009.6 |
| 20260504201559 | 72 | 155 | 3.0 | 10.0 | 0.00 | 0.00 | 0.00 | 40 | 1009.8 |
| 20260504200058 | 72 | 190 | 5.0 | 18.0 | 0.00 | 0.00 | 0.00 | 44 | 1009.9 |
| 20260504194604 | 73 | 286 | 4.0 | 10.0 | 0.00 | 0.00 | 0.00 | 43 | 1010.2 |
| 20260504193059 | 72 | 207 | 4.0 | 12.0 | 0.00 | 0.00 | 0.00 | 42 | 1010.1 |
| 20260504191550 | 71 | 287 | 1.0 | 14.0 | 0.00 | 0.00 | 0.00 | 40 | 1010.4 |
| 20260504184553 | 71 | 303 | 1.0 | 10.0 | 0.00 | 0.00 | 0.00 | 41 | 1010.7 |
| 20260504183043 | 71 | 180 | 3.0 | 11.0 | 0.00 | 0.00 | 0.00 | 43 | 1011.0 |
| 20260504181543 | 71 | 272 | 2.0 | 10.0 | 0.00 | 0.00 | 0.00 | 43 | 1011.3 |
| 20260504180040 | 71 | 211 | 5.0 | 13.0 | 0.00 | 0.00 | 0.00 | 44 | 1011.4 |
| 20260504174537 | 70 | 176 | 2.0 | 12.0 | 0.00 | 0.00 | 0.00 | 42 | 1011.8 |
| 20260504173045 | 70 | 188 | 0.0 | 12.0 | 0.00 | 0.00 | 0.00 | 41 | 1011.9 |
| 20260504171534 | 69 | 270 | 2.0 | 15.0 | 0.00 | 0.00 | 0.00 | 42 | 1012.0 |
| 20260504081516 | 43 | 121 | 0.0 | 0.0 | 0.00 | 0.00 | 0.00 | 82 | 1014.4 |
| 20260504050104 | 45 | 220 | 0.0 | 0.0 | 0.00 | 0.00 | 0.00 | 68 | 1014.4 |
| 20260504044604 | 44 | 221 | 0.0 | 1.0 | 0.00 | 0.00 | 0.00 | 70 | 1014.4 |
| 20260504043056 | 44 | 169 | 0.0 | 0.0 | 0.00 | 0.00 | 0.00 | 72 | 1014.2 |
| 20260504041554 | 44 | 179 | 0.0 | 2.0 | 0.00 | 0.00 | 0.00 | 72 | 1014.1 |
| 20260504040052 | 44 | 192 | 0.0 | 0.0 | 0.00 | 0.00 | 0.00 | 72 | 1014.0 |
| 20260504034557 | 44 | 199 | 0.0 | 3.0 | 0.00 | 0.00 | 0.00 | 71 | 1013.9 |
| 20260504033056 | 44 | 165 | 0.0 | 0.0 | 0.00 | 0.00 | 0.00 | 72 | 1013.9 |
| 20260504031552 | 44 | 166 | 0.0 | 0.0 | 0.00 | 0.00 | 0.00 | 71 | 1013.7 |
| 20260504030051 | 44 | 166 | 0.0 | 0.0 | 0.00 | 0.00 | 0.00 | 71 | 1013.7 |
| 20260504024550 | 45 | 166 | 0.0 | 0.0 | 0.00 | 0.00 | 0.00 | 70 | 1013.7 |
| 20260504023050 | 46 | 166 | 0.0 | 0.0 | 0.00 | 0.00 | 0.00 | 68 | 1013.8 |
| 20260504021549 | 46 | 166 | 0.0 | 0.0 | 0.00 | 0.00 | 0.00 | 66 | 1013.8 |
| 20260504020049 | 47 | 157 | 0.0 | 0.0 | 0.00 | 0.00 | 0.00 | 65 | 1013.8 |
| 20260504014549 | 47 | 157 | 0.0 | 0.0 | 0.00 | 0.00 | 0.00 | 64 | 1013.7 |
| 20260504013050 | 48 | 157 | 0.0 | 0.0 | 0.00 | 0.00 | 0.00 | 62 | 1013.6 |
| 20260504011549 | 49 | 224 | 0.0 | 0.0 | 0.00 | 0.00 | 0.00 | 61 | 1013.4 |
| 20260504010054 | 49 | 225 | 0.0 | 0.0 | 0.00 | 0.00 | 0.00 | 60 | 1013.4 |
| 20260504004546 | 50 | 223 | 0.0 | 0.0 | 0.00 | 0.00 | 0.00 | 59 | 1013.3 |